Location: Bonny Doon Airfield
(37.0704°N, 122.1252°W)
Time: 16:15:38
(UTC-07:00)

Tiangong 1 - Pass Details

Date: 11 October 2017
Orbit: 292 x 320 km, 42.8° (Epoch: 21 October)

Event Time Altitude Azimuth Distance (km) Brightness Sun altitude
Rises 19:32:46 0° 292° (WNW) 2,041 6.1 -12.0°
Reaches altitude 10° 19:34:58 10° 308° (NW) 1,205 4.4 -12.4°
Maximum altitude 19:37:15 24° 5° (N) 706 2.3 -12.9°
Enters shadow 19:38:16 19° 40° (NE) 829 2.4 -13.1°
